This is the latest recevied weather packets stored in our database for station/object NC4M. If no packets are shown the sender has not sent any weather packets the latest 10 day(s).
| Time | Temp. | Humidity | Pressure | Rain* | Wind** | Luminosity | Snow |
|---|---|---|---|---|---|---|---|
| 1777192014 | 12.78° C | 87% | 1012.5 hPa | 0 mm | - | 0 W/m² | - |
| 1777191710 | 12.78° C | 86% | 1012.4 hPa | 0 mm | - | 0 W/m² | - |
| 1777191407 | 12.78° C | 88% | 1012.4 hPa | 0 mm | - | 0 W/m² | - |
| 1777191104 | 12.78° C | 87% | 1012.5 hPa | 0 mm | - | 0 W/m² | - |
| 1777190800 | 12.78° C | 86% | 1012.4 hPa | 0 mm | - | 0 W/m² | - |
| 1777190497 | 13.33° C | 87% | 1012.3 hPa | 0 mm | - | 0 W/m² | - |
| 1777190193 | 13.33° C | 86% | 1012.4 hPa | 0 mm | - | 0 W/m² | - |
| 1777189889 | 13.33° C | 84% | 1012.5 hPa | 0 mm | - | 0 W/m² | - |
| 1777189586 | 13.89° C | 83% | 1012.5 hPa | 0 mm | - | 0 W/m² | - |
| 1777189281 | 13.89° C | 81% | 1012.4 hPa | 0 mm | - | 0 W/m² | - |
| 1777188976 | 13.89° C | 81% | 1012.5 hPa | 0 mm | - | 0 W/m² | - |
| 1777188672 | 14.44° C | 79% | 1012.5 hPa | 0 mm | - | 0 W/m² | - |
| 1777188369 | 14.44° C | 76% | 1012 hPa | 0 mm | - | 0 W/m² | - |
| 1777188063 | 14.44° C | 76% | 1012.4 hPa | 0 mm | - | 0 W/m² | - |
| 1777187759 | 14.44° C | 75% | 1012.2 hPa | 0 mm | - | 0 W/m² | - |
| 1777187454 | 14.44° C | 74% | 1012.1 hPa | 0 mm | - | 0 W/m² | - |
| 1777187149 | 14.44° C | 76% | 1012 hPa | 0 mm | - | 0 W/m² | - |
| 1777186845 | 14.44° C | 76% | 1012 hPa | 0 mm | - | 0 W/m² | - |
| 1777186541 | 13.89° C | 77% | 1012 hPa | 0 mm | - | 0 W/m² | - |
| 1777186236 | 13.89° C | 78% | 1011.7 hPa | 0 mm | - | 0 W/m² | - |
| 1777185932 | 13.89° C | 82% | 1011.9 hPa | 0 mm | - | 0 W/m² | - |
| 1777185628 | 13.33° C | 84% | 1011.8 hPa | 0 mm | - | 0 W/m² | - |
| 1777185324 | 13.33° C | 87% | 1012 hPa | 0 mm | - | 0 W/m² | - |
| 1777185021 | 13.89° C | 86% | 1011.9 hPa | 0 mm | - | 0 W/m² | - |
| 1777184720 | 13.89° C | 87% | 1011.9 hPa | 0 mm | - | 0 W/m² | - |
* Rain latest hour (hover to see other rain measurements)
** Current wind speed in m/s (hover to see current wind gust speed)